| time (UTC) | temp F | wind direction | speed MPH | gust MPH | rain 1hr in | rain 24hr in | rain mn in | humidity % | barometer mb |
| 20260906110856 | 73 | 332 | 2.0 | 2.0 | 0.00 | 0.00 | 0.00 | 94 | 1014.5 |
| 20260906110352 | 73 | 198 | 2.0 | 2.0 | 0.00 | 0.00 | 0.00 | 94 | 1014.5 |
| 20260906105851 | 74 | 316 | 2.0 | 3.0 | 0.00 | 0.00 | 0.00 | 94 | 1014.5 |
| 20260906105347 | 74 | 50 | 3.0 | 3.0 | 0.00 | 0.00 | 0.00 | 94 | 1014.5 |
| 20260906104843 | 74 | 298 | 3.0 | 3.0 | 0.00 | 0.00 | 0.00 | 94 | 1014.2 |
| 20260906104341 | 74 | 174 | 2.0 | 3.0 | 0.00 | 0.00 | 0.00 | 94 | 1014.4 |
| 20260906103840 | 74 | 303 | 1.0 | 2.0 | 0.00 | 0.00 | 0.00 | 94 | 1014.1 |
| 20260906103338 | 74 | 20 | 3.0 | 3.0 | 0.00 | 0.00 | 0.00 | 94 | 1014.3 |
| 20260906102834 | 74 | 61 | 1.0 | 1.0 | 0.00 | 0.00 | 0.00 | 94 | 1014.2 |
| 20260906102333 | 74 | 216 | 2.0 | 2.0 | 0.00 | 0.00 | 0.00 | 94 | 1013.9 |
| 20260906101829 | 74 | 235 | 1.0 | 1.0 | 0.00 | 0.00 | 0.00 | 93 | 1013.9 |
| 20260906101324 | 75 | 159 | 1.0 | 1.0 | 0.00 | 0.00 | 0.00 | 93 | 1013.8 |
| 20260906100819 | 75 | 79 | 1.0 | 1.0 | 0.00 | 0.00 | 0.00 | 93 | 1013.8 |
| 20260906100318 | 75 | 40 | 2.0 | 3.0 | 0.00 | 0.00 | 0.00 | 93 | 1013.7 |
| 20260906095813 | 75 | 317 | 2.0 | 3.0 | 0.00 | 0.00 | 0.00 | 93 | 1013.9 |
| 20260906095309 | 75 | 6 | 2.0 | 2.0 | 0.00 | 0.00 | 0.00 | 93 | 1013.8 |
| 20260906094808 | 75 | 212 | 1.0 | 1.0 | 0.00 | 0.00 | 0.00 | 92 | 1014.0 |
| 20260906094303 | 75 | 273 | 2.0 | 2.0 | 0.00 | 0.00 | 0.00 | 92 | 1013.8 |
| 20260906093759 | 76 | 336 | 2.0 | 2.0 | 0.00 | 0.00 | 0.00 | 92 | 1014.0 |
| 20260906093255 | 76 | 45 | 3.0 | 3.0 | 0.00 | 0.00 | 0.00 | 92 | 1013.7 |
| 20260906092749 | 76 | 106 | 1.0 | 2.0 | 0.00 | 0.00 | 0.00 | 91 | 1013.6 |
| 20260906092244 | 76 | 152 | 1.0 | 1.0 | 0.00 | 0.00 | 0.00 | 91 | 1013.6 |
| 20260906091740 | 76 | 36 | 2.0 | 2.0 | 0.00 | 0.00 | 0.00 | 91 | 1013.4 |
| 20260906091236 | 76 | 293 | 2.0 | 2.0 | 0.00 | 0.00 | 0.00 | 91 | 1013.6 |
| 20260906090732 | 76 | 91 | 1.0 | 2.0 | 0.00 | 0.00 | 0.00 | 91 | 1013.6 |
| 20260906090231 | 76 | 100 | 2.0 | 2.0 | 0.00 | 0.00 | 0.00 | 91 | 1013.8 |
| 20260906085731 | 76 | 139 | 1.0 | 1.0 | 0.00 | 0.00 | 0.00 | 91 | 1013.6 |
| 20260906085230 | 76 | 162 | 1.0 | 1.0 | 0.00 | 0.00 | 0.00 | 90 | 1013.7 |
| 20260906084724 | 77 | 163 | 0.0 | 0.0 | 0.00 | 0.00 | 0.00 | 90 | 1013.6 |
| 20260906084218 | 77 | 237 | 1.0 | 2.0 | 0.00 | 0.00 | 0.00 | 90 | 1013.7 |
| 20260906083714 | 77 | 190 | 1.0 | 2.0 | 0.00 | 0.00 | 0.00 | 90 | 1013.5 |
| 20260906083209 | 77 | 180 | 1.0 | 2.0 | 0.00 | 0.00 | 0.00 | 90 | 1013.5 |
| 20260906082704 | 77 | 123 | 1.0 | 1.0 | 0.00 | 0.00 | 0.00 | 89 | 1013.4 |
| 20260906082154 | 77 | 173 | 1.0 | 1.0 | 0.00 | 0.00 | 0.00 | 89 | 1013.5 |
| 20260906081649 | 77 | 175 | 1.0 | 1.0 | 0.00 | 0.00 | 0.00 | 89 | 1013.5 |
| 20260906081144 | 77 | 26 | 1.0 | 2.0 | 0.00 | 0.00 | 0.00 | 88 | 1013.8 |
| 20260906080641 | 77 | 98 | 1.0 | 2.0 | 0.00 | 0.00 | 0.00 | 88 | 1013.6 |
| 20260906080137 | 77 | 109 | 1.0 | 2.0 | 0.00 | 0.00 | 0.00 | 88 | 1013.5 |
| 20260906075636 | 77 | 182 | 0.0 | 1.0 | 0.00 | 0.00 | 0.00 | 88 | 1013.3 |
| 20260906075131 | 77 | 172 | 0.0 | 0.0 | 0.00 | 0.00 | 0.00 | 87 | 1013.5 |
| 20260906074626 | 77 | 178 | 0.0 | 0.0 | 0.00 | 0.00 | 0.00 | 87 | 1013.3 |
| 20260906074125 | 78 | 197 | 1.0 | 1.0 | 0.00 | 0.00 | 0.00 | 87 | 1013.3 |
| 20260906073620 | 78 | 158 | 0.0 | 0.0 | 0.00 | 0.00 | 0.00 | 86 | 1013.6 |
| 20260906073116 | 78 | 168 | 0.0 | 1.0 | 0.00 | 0.00 | 0.00 | 86 | 1013.3 |
| 20260906072611 | 78 | 184 | 1.0 | 1.0 | 0.00 | 0.00 | 0.00 | 86 | 1013.4 |
| 20260906072107 | 78 | 140 | 1.0 | 1.0 | 0.00 | 0.00 | 0.00 | 86 | 1013.2 |
| 20260906071603 | 78 | 192 | 0.0 | 1.0 | 0.00 | 0.00 | 0.00 | 85 | 1013.4 |
| 20260906071057 | 78 | 127 | 1.0 | 1.0 | 0.00 | 0.00 | 0.00 | 86 | 1013.3 |
| 20260906070554 | 77 | 222 | 2.0 | 2.0 | 0.00 | 0.00 | 0.00 | 86 | 1013.4 |
| 20260906070049 | 77 | 31 | 1.0 | 2.0 | 0.00 | 0.00 | 0.00 | 86 | 1013.5 |
| 20260906065548 | 77 | 167 | 0.0 | 1.0 | 0.00 | 0.00 | 0.00 | 86 | 1013.2 |
| 20260906065044 | 78 | 172 | 0.0 | 0.0 | 0.00 | 0.00 | 0.00 | 85 | 1013.4 |
| 20260906064540 | 78 | 169 | 0.0 | 1.0 | 0.00 | 0.00 | 0.00 | 85 | 1013.4 |
| 20260906064035 | 78 | 239 | 2.0 | 2.0 | 0.00 | 0.00 | 0.00 | 85 | 1013.5 |
| 20260906063530 | 78 | 195 | 1.0 | 1.0 | 0.00 | 0.00 | 0.00 | 85 | 1013.5 |
| 20260906063026 | 78 | 173 | 0.0 | 0.0 | 0.00 | 0.00 | 0.00 | 84 | 1013.7 |
| 20260906062521 | 79 | 148 | 0.0 | 0.0 | 0.00 | 0.00 | 0.00 | 83 | 1013.5 |
| 20260906062015 | 79 | 210 | 1.0 | 1.0 | 0.00 | 0.00 | 0.00 | 83 | 1013.5 |
| 20260906061512 | 79 | 216 | 2.0 | 2.0 | 0.00 | 0.00 | 0.00 | 82 | 1013.7 |
| 20260906061011 | 79 | 57 | 2.0 | 2.0 | 0.00 | 0.00 | 0.00 | 82 | 1013.6 |
| 20260906060508 | 80 | 170 | 0.0 | 0.0 | 0.00 | 0.00 | 0.00 | 82 | 1013.9 |
| 20260906060004 | 80 | 160 | 1.0 | 1.0 | 0.00 | 0.00 | 0.00 | 81 | 1013.9 |
| 20260906055500 | 80 | 355 | 2.0 | 2.0 | 0.00 | 0.00 | 0.00 | 81 | 1013.9 |
| 20260906054955 | 80 | 155 | 0.0 | 1.0 | 0.00 | 0.00 | 0.00 | 82 | 1014.0 |
| 20260906054455 | 80 | 175 | 0.0 | 0.0 | 0.00 | 0.00 | 0.00 | 82 | 1014.1 |
| 20260906053950 | 80 | 159 | 1.0 | 2.0 | 0.00 | 0.00 | 0.00 | 81 | 1014.1 |
| 20260906053447 | 79 | 57 | 2.0 | 2.0 | 0.00 | 0.00 | 0.00 | 82 | 1014.1 |
| 20260906052942 | 79 | 163 | 0.0 | 1.0 | 0.00 | 0.00 | 0.00 | 85 | 1014.0 |
| 20260906052438 | 79 | 122 | 0.0 | 1.0 | 0.00 | 0.00 | 0.00 | 84 | 1013.7 |
| 20260906051935 | 79 | 195 | 0.0 | 0.0 | 0.00 | 0.00 | 0.00 | 84 | 1014.0 |
| 20260906051430 | 79 | 247 | 1.0 | 2.0 | 0.00 | 0.00 | 0.00 | 85 | 1013.8 |
| 20260906050926 | 79 | 187 | 0.0 | 0.0 | 0.00 | 0.00 | 0.00 | 85 | 1014.0 |
| 20260906050425 | 79 | 187 | 0.0 | 0.0 | 0.00 | 0.00 | 0.00 | 85 | 1013.8 |
| 20260906045925 | 79 | 187 | 0.0 | 0.0 | 0.00 | 0.00 | 0.00 | 85 | 1013.8 |
| 20260906045423 | 78 | 140 | 1.0 | 1.0 | 0.00 | 0.00 | 0.00 | 86 | 1013.7 |
| 20260906044919 | 78 | 163 | 0.0 | 0.0 | 0.00 | 0.00 | 0.00 | 86 | 1013.6 |
| 20260906044414 | 79 | 162 | 0.0 | 1.0 | 0.00 | 0.00 | 0.00 | 85 | 1013.7 |
| 20260906043910 | 79 | 188 | 0.0 | 0.0 | 0.00 | 0.00 | 0.00 | 85 | 1013.7 |
| 20260906043406 | 79 | 172 | 0.0 | 0.0 | 0.00 | 0.00 | 0.00 | 85 | 1013.4 |
| 20260906042901 | 79 | 169 | 0.0 | 0.0 | 0.00 | 0.00 | 0.00 | 85 | 1013.5 |
| 20260906042400 | 79 | 183 | 0.0 | 0.0 | 0.00 | 0.00 | 0.00 | 84 | 1013.4 |
| 20260906041855 | 79 | 165 | 0.0 | 0.0 | 0.00 | 0.00 | 0.00 | 84 | 1013.2 |
| 20260906041351 | 79 | 167 | 0.0 | 0.0 | 0.00 | 0.00 | 0.00 | 84 | 1013.0 |
| 20260906040845 | 80 | 177 | 0.0 | 0.0 | 0.00 | 0.00 | 0.00 | 83 | 1013.1 |
| 20260906040341 | 80 | 184 | 0.0 | 0.0 | 0.00 | 0.00 | 0.00 | 83 | 1013.3 |
| 20260906035836 | 80 | 183 | 0.0 | 0.0 | 0.00 | 0.00 | 0.00 | 82 | 1013.3 |
| 20260906035331 | 80 | 183 | 0.0 | 0.0 | 0.00 | 0.00 | 0.00 | 82 | 1013.4 |
| 20260906034826 | 80 | 183 | 0.0 | 0.0 | 0.00 | 0.00 | 0.00 | 81 | 1013.2 |
| 20260906034321 | 81 | 183 | 0.0 | 0.0 | 0.00 | 0.00 | 0.00 | 80 | 1013.2 |
| 20260906033817 | 80 | 167 | 0.0 | 0.0 | 0.00 | 0.00 | 0.00 | 80 | 1013.1 |
| 20260906033316 | 81 | 164 | 0.0 | 1.0 | 0.00 | 0.00 | 0.00 | 79 | 1013.0 |
| 20260906032813 | 81 | 175 | 0.0 | 0.0 | 0.00 | 0.00 | 0.00 | 79 | 1013.3 |
| 20260906032308 | 81 | 166 | 0.0 | 0.0 | 0.00 | 0.00 | 0.00 | 80 | 1013.1 |
| 20260906031803 | 80 | 160 | 0.0 | 0.0 | 0.00 | 0.00 | 0.00 | 81 | 1013.1 |
| 20260906031259 | 81 | 157 | 1.0 | 1.0 | 0.00 | 0.00 | 0.00 | 79 | 1013.2 |
| 20260906030758 | 81 | 157 | 0.0 | 1.0 | 0.00 | 0.00 | 0.00 | 79 | 1013.0 |
| 20260906030254 | 81 | 170 | 0.0 | 0.0 | 0.00 | 0.00 | 0.00 | 79 | 1013.1 |
| 20260906025753 | 80 | 204 | 1.0 | 1.0 | 0.00 | 0.00 | 0.00 | 79 | 1013.0 |
| 20260906025248 | 80 | 175 | 0.0 | 0.0 | 0.00 | 0.00 | 0.00 | 80 | 1013.0 |
| 20260906024747 | 80 | 175 | 0.0 | 0.0 | 0.00 | 0.00 | 0.00 | 80 | 1012.9 |
| 20260906024246 | 80 | 175 | 0.0 | 0.0 | 0.00 | 0.00 | 0.00 | 80 | 1012.7 |
| 20260906023741 | 80 | 180 | 0.0 | 0.0 | 0.00 | 0.00 | 0.00 | 80 | 1012.7 |
| 20260906023237 | 81 | 189 | 1.0 | 1.0 | 0.00 | 0.00 | 0.00 | 79 | 1012.5 |
| 20260906022732 | 81 | 186 | 0.0 | 0.0 | 0.00 | 0.00 | 0.00 | 79 | 1012.7 |
| 20260906022227 | 81 | 185 | 0.0 | 0.0 | 0.00 | 0.00 | 0.00 | 78 | 1012.4 |
| 20260906021724 | 81 | 185 | 0.0 | 0.0 | 0.00 | 0.00 | 0.00 | 78 | 1012.5 |
| 20260906021222 | 81 | 185 | 0.0 | 0.0 | 0.00 | 0.00 | 0.00 | 77 | 1012.3 |
| 20260906020717 | 82 | 193 | 0.0 | 0.0 | 0.00 | 0.00 | 0.00 | 76 | 1012.5 |
| 20260906020211 | 82 | 216 | 1.0 | 1.0 | 0.00 | 0.00 | 0.00 | 75 | 1012.4 |
| 20260906015706 | 82 | 192 | 0.0 | 0.0 | 0.00 | 0.00 | 0.00 | 75 | 1012.5 |
| 20260906015205 | 83 | 173 | 0.0 | 0.0 | 0.00 | 0.00 | 0.00 | 73 | 1012.3 |
| 20260906014705 | 84 | 173 | 0.0 | 0.0 | 0.00 | 0.00 | 0.00 | 73 | 1012.3 |
| 20260906014201 | 84 | 172 | 0.0 | 0.0 | 0.00 | 0.00 | 0.00 | 71 | 1012.4 |
| 20260906013657 | 85 | 172 | 0.0 | 0.0 | 0.00 | 0.00 | 0.00 | 71 | 1012.3 |
| 20260906013152 | 85 | 166 | 0.0 | 0.0 | 0.00 | 0.00 | 0.00 | 68 | 1012.2 |
| 20260906012651 | 84 | 161 | 0.0 | 1.0 | 0.00 | 0.00 | 0.00 | 68 | 1012.0 |
| 20260906012146 | 85 | 145 | 0.0 | 0.0 | 0.00 | 0.00 | 0.00 | 68 | 1011.9 |
| 20260906011642 | 84 | 171 | 0.0 | 0.0 | 0.00 | 0.00 | 0.00 | 67 | 1012.1 |
| 20260906011136 | 84 | 13 | 3.0 | 3.0 | 0.00 | 0.00 | 0.00 | 71 | 1012.0 |
| 20260906010631 | 84 | 159 | 1.0 | 1.0 | 0.00 | 0.00 | 0.00 | 70 | 1011.9 |
| 20260906010128 | 84 | 180 | 0.0 | 0.0 | 0.00 | 0.00 | 0.00 | 70 | 1012.0 |
| 20260906005622 | 84 | 181 | 0.0 | 0.0 | 0.00 | 0.00 | 0.00 | 69 | 1011.7 |
| 20260906005121 | 84 | 181 | 0.0 | 0.0 | 0.00 | 0.00 | 0.00 | 70 | 1011.6 |
| 20260906004620 | 84 | 182 | 0.0 | 0.0 | 0.00 | 0.00 | 0.00 | 69 | 1012.0 |
| 20260906004115 | 84 | 184 | 0.0 | 0.0 | 0.00 | 0.00 | 0.00 | 69 | 1011.5 |
| 20260906003611 | 85 | 187 | 0.0 | 0.0 | 0.00 | 0.00 | 0.00 | 69 | 1011.7 |
| 20260906003107 | 86 | 190 | 0.0 | 0.0 | 0.00 | 0.00 | 0.00 | 67 | 1011.6 |
| 20260906002607 | 86 | 183 | 0.0 | 0.0 | 0.00 | 0.00 | 0.00 | 65 | 1011.5 |
| 20260906002101 | 86 | 176 | 0.0 | 0.0 | 0.00 | 0.00 | 0.00 | 66 | 1011.7 |
| 20260906001556 | 87 | 176 | 0.0 | 0.0 | 0.00 | 0.00 | 0.00 | 66 | 1011.9 |
| 20260906001051 | 87 | 176 | 0.0 | 0.0 | 0.00 | 0.00 | 0.00 | 65 | 1012.0 |
| 20260906000547 | 87 | 174 | 0.0 | 0.0 | 0.00 | 0.00 | 0.00 | 63 | 1012.1 |
| 20260906000042 | 88 | 174 | 0.0 | 0.0 | 0.00 | 0.00 | 0.00 | 63 | 1012.1 |
| 20260905235536 | 88 | 173 | 0.0 | 0.0 | 0.00 | 0.00 | 0.00 | 63 | 1012.3 |
| 20260905235031 | 89 | 172 | 0.0 | 0.0 | 0.00 | 0.00 | 0.00 | 60 | 1012.2 |
| 20260905234527 | 89 | 180 | 0.0 | 0.0 | 0.00 | 0.00 | 0.00 | 62 | 1012.1 |
| 20260905234027 | 89 | 173 | 0.0 | 0.0 | 0.00 | 0.00 | 0.00 | 59 | 1012.1 |
| 20260905233522 | 90 | 169 | 0.0 | 0.0 | 0.00 | 0.00 | 0.00 | 58 | 1012.3 |
| 20260905233021 | 91 | 177 | 0.0 | 0.0 | 0.00 | 0.00 | 0.00 | 57 | 1012.1 |
| 20260905232517 | 91 | 175 | 0.0 | 0.0 | 0.00 | 0.00 | 0.00 | 55 | 1012.0 |
| 20260905232013 | 92 | 185 | 0.0 | 0.0 | 0.00 | 0.00 | 0.00 | 56 | 1012.1 |
| 20260905231508 | 92 | 186 | 0.0 | 0.0 | 0.00 | 0.00 | 0.00 | 58 | 1012.1 |
| 20260905231004 | 92 | 182 | 0.0 | 0.0 | 0.00 | 0.00 | 0.00 | 60 | 1012.0 |
| 20260905230503 | 92 | 180 | 0.0 | 0.0 | 0.00 | 0.00 | 0.00 | 59 | 1011.9 |
| 20260905230001 | 92 | 192 | 0.0 | 1.0 | 0.00 | 0.00 | 0.00 | 56 | 1011.7 |
| 20260905225456 | 91 | 183 | 0.0 | 1.0 | 0.00 | 0.00 | 0.00 | 59 | 1011.7 |
| 20260905224951 | 91 | 190 | 0.0 | 0.0 | 0.00 | 0.00 | 0.00 | 56 | 1011.7 |
| 20260905224446 | 91 | 190 | 0.0 | 0.0 | 0.00 | 0.00 | 0.00 | 60 | 1011.6 |
| 20260905223945 | 93 | 178 | 0.0 | 0.0 | 0.00 | 0.00 | 0.00 | 58 | 1011.7 |
| 20260905223444 | 93 | 165 | 0.0 | 1.0 | 0.00 | 0.00 | 0.00 | 51 | 1011.7 |
| 20260905222944 | 92 | 180 | 0.0 | 1.0 | 0.00 | 0.00 | 0.00 | 53 | 1011.9 |
| 20260905222438 | 92 | 184 | 0.0 | 1.0 | 0.00 | 0.00 | 0.00 | 54 | 1011.9 |
| 20260905221934 | 91 | 174 | 1.0 | 1.0 | 0.00 | 0.00 | 0.00 | 55 | 1011.9 |
| 20260905221430 | 91 | 174 | 0.0 | 0.0 | 0.00 | 0.00 | 0.00 | 57 | 1011.4 |
| 20260905220926 | 91 | 182 | 0.0 | 0.0 | 0.00 | 0.00 | 0.00 | 59 | 1011.9 |
| 20260905220422 | 91 | 188 | 0.0 | 0.0 | 0.00 | 0.00 | 0.00 | 55 | 1011.5 |
| 20260905215921 | 91 | 190 | 1.0 | 1.0 | 0.00 | 0.00 | 0.00 | 56 | 1011.5 |
| 20260905215416 | 92 | 187 | 0.0 | 0.0 | 0.00 | 0.00 | 0.00 | 54 | 1011.6 |
| 20260905214913 | 92 | 234 | 1.0 | 2.0 | 0.00 | 0.00 | 0.00 | 51 | 1011.5 |
| 20260905214409 | 93 | 231 | 1.0 | 2.0 | 0.00 | 0.00 | 0.00 | 50 | 1011.6 |
| 20260905213908 | 93 | 256 | 1.0 | 2.0 | 0.00 | 0.00 | 0.00 | 49 | 1011.7 |
| 20260905213405 | 93 | 225 | 5.0 | 6.0 | 0.00 | 0.00 | 0.00 | 47 | 1011.6 |
| 20260905212900 | 94 | 184 | 1.0 | 2.0 | 0.00 | 0.00 | 0.00 | 50 | 1011.6 |
| 20260905212354 | 95 | 228 | 2.0 | 3.0 | 0.00 | 0.00 | 0.00 | 45 | 1011.5 |
| 20260905211853 | 96 | 195 | 1.0 | 1.0 | 0.00 | 0.00 | 0.00 | 46 | 1011.6 |
| 20260905211349 | 97 | 267 | 7.0 | 8.0 | 0.00 | 0.00 | 0.00 | 44 | 1011.5 |
| 20260905210840 | 98 | 194 | 2.0 | 3.0 | 0.00 | 0.00 | 0.00 | 41 | 1011.6 |
| 20260905210340 | 98 | 198 | 0.0 | 1.0 | 0.00 | 0.00 | 0.00 | 42 | 1011.5 |
| 20260905205839 | 98 | 216 | 1.0 | 1.0 | 0.00 | 0.00 | 0.00 | 45 | 1011.5 |
| 20260905205333 | 98 | 178 | 1.0 | 1.0 | 0.00 | 0.00 | 0.00 | 44 | 1011.6 |
| 20260905204833 | 100 | 195 | 3.0 | 3.0 | 0.00 | 0.00 | 0.00 | 41 | 1011.9 |
| 20260905204329 | 102 | 232 | 2.0 | 3.0 | 0.00 | 0.00 | 0.00 | 40 | 1012.1 |
| 20260905203827 | 102 | 231 | 1.0 | 1.0 | 0.00 | 0.00 | 0.00 | 38 | 1011.9 |
| 20260905203324 | 102 | 204 | 3.0 | 3.0 | 0.00 | 0.00 | 0.00 | 36 | 1011.9 |
| 20260905202819 | 103 | 189 | 1.0 | 1.0 | 0.00 | 0.00 | 0.00 | 37 | 1012.1 |
| 20260905202314 | 105 | 197 | 4.0 | 6.0 | 0.00 | 0.00 | 0.00 | 35 | 1012.0 |
| 20260905201809 | 106 | 200 | 0.0 | 1.0 | 0.00 | 0.00 | 0.00 | 35 | 1012.2 |
| 20260905201305 | 105 | 194 | 0.0 | 1.0 | 0.00 | 0.00 | 0.00 | 35 | 1012.2 |
| 20260905200759 | 105 | 183 | 3.0 | 3.0 | 0.00 | 0.00 | 0.00 | 35 | 1012.5 |
| 20260905200255 | 104 | 193 | 1.0 | 2.0 | 0.00 | 0.00 | 0.00 | 38 | 1012.2 |
| 20260905195753 | 104 | 185 | 0.0 | 1.0 | 0.00 | 0.00 | 0.00 | 35 | 1012.4 |
| 20260905195248 | 103 | 196 | 1.0 | 2.0 | 0.00 | 0.00 | 0.00 | 39 | 1012.4 |
| 20260905194744 | 104 | 232 | 3.0 | 3.0 | 0.00 | 0.00 | 0.00 | 35 | 1012.3 |
| 20260905194243 | 104 | 237 | 3.0 | 3.0 | 0.00 | 0.00 | 0.00 | 36 | 1012.6 |
| 20260905193743 | 103 | 201 | 1.0 | 2.0 | 0.00 | 0.00 | 0.00 | 37 | 1012.3 |
| 20260905193238 | 103 | 219 | 4.0 | 5.0 | 0.00 | 0.00 | 0.00 | 35 | 1012.6 |
| 20260905192733 | 104 | 267 | 5.0 | 7.0 | 0.00 | 0.00 | 0.00 | 35 | 1012.9 |
| 20260905192230 | 104 | 213 | 1.0 | 1.0 | 0.00 | 0.00 | 0.00 | 39 | 1012.8 |
| 20260905191729 | 105 | 210 | 3.0 | 3.0 | 0.00 | 0.00 | 0.00 | 35 | 1012.8 |
| 20260905191227 | 105 | 213 | 3.0 | 5.0 | 0.00 | 0.00 | 0.00 | 35 | 1013.0 |
| 20260905190726 | 104 | 191 | 1.0 | 1.0 | 0.00 | 0.00 | 0.00 | 39 | 1013.2 |
| 20260905190225 | 103 | 172 | 2.0 | 2.0 | 0.00 | 0.00 | 0.00 | 36 | 1013.3 |
| 20260905185724 | 104 | 216 | 1.0 | 2.0 | 0.00 | 0.00 | 0.00 | 39 | 1013.1 |
| 20260905185219 | 103 | 199 | 2.0 | 2.0 | 0.00 | 0.00 | 0.00 | 39 | 1013.4 |
| 20260905184719 | 102 | 218 | 3.0 | 3.0 | 0.00 | 0.00 | 0.00 | 40 | 1013.2 |
| 20260905184218 | 102 | 193 | 2.0 | 2.0 | 0.00 | 0.00 | 0.00 | 40 | 1013.3 |
| 20260905183712 | 102 | 214 | 1.0 | 1.0 | 0.00 | 0.00 | 0.00 | 41 | 1013.4 |
| 20260905183207 | 103 | 212 | 1.0 | 2.0 | 0.00 | 0.00 | 0.00 | 37 | 1013.4 |
| 20260905182707 | 103 | 190 | 1.0 | 2.0 | 0.00 | 0.00 | 0.00 | 40 | 1013.4 |
| 20260905182206 | 103 | 186 | 0.0 | 1.0 | 0.00 | 0.00 | 0.00 | 41 | 1013.6 |
| 20260905181702 | 102 | 235 | 2.0 | 2.0 | 0.00 | 0.00 | 0.00 | 40 | 1013.6 |
| 20260905181201 | 101 | 185 | 1.0 | 2.0 | 0.00 | 0.00 | 0.00 | 44 | 1013.6 |
| 20260905180655 | 101 | 33 | 2.0 | 2.0 | 0.00 | 0.00 | 0.00 | 43 | 1013.7 |
| 20260905180151 | 101 | 98 | 1.0 | 1.0 | 0.00 | 0.00 | 0.00 | 39 | 1013.8 |
| 20260905175650 | 100 | 184 | 1.0 | 1.0 | 0.00 | 0.00 | 0.00 | 43 | 1013.9 |
| 20260905175146 | 100 | 231 | 3.0 | 5.0 | 0.00 | 0.00 | 0.00 | 40 | 1013.9 |
| 20260905174641 | 100 | 204 | 3.0 | 3.0 | 0.00 | 0.00 | 0.00 | 44 | 1014.0 |
| 20260905174137 | 99 | 187 | 1.0 | 1.0 | 0.00 | 0.00 | 0.00 | 47 | 1013.8 |
| 20260905173632 | 99 | 179 | 0.0 | 0.0 | 0.00 | 0.00 | 0.00 | 46 | 1013.8 |
| 20260905173128 | 100 | 190 | 1.0 | 2.0 | 0.00 | 0.00 | 0.00 | 44 | 1014.0 |
| 20260905172627 | 99 | 206 | 2.0 | 2.0 | 0.00 | 0.00 | 0.00 | 46 | 1014.4 |
| 20260905172122 | 100 | 189 | 1.0 | 1.0 | 0.00 | 0.00 | 0.00 | 46 | 1014.3 |
| 20260905171618 | 100 | 188 | 2.0 | 2.0 | 0.00 | 0.00 | 0.00 | 48 | 1014.2 |
| 20260905171114 | 100 | 205 | 1.0 | 2.0 | 0.00 | 0.00 | 0.00 | 45 | 1014.3 |
| 20260905170610 | 100 | 184 | 2.0 | 2.0 | 0.00 | 0.00 | 0.00 | 45 | 1014.3 |
| 20260905170105 | 101 | 186 | 2.0 | 2.0 | 0.00 | 0.00 | 0.00 | 41 | 1014.4 |
| 20260905165600 | 100 | 182 | 1.0 | 1.0 | 0.00 | 0.00 | 0.00 | 47 | 1014.7 |
| 20260905165055 | 101 | 293 | 3.0 | 5.0 | 0.00 | 0.00 | 0.00 | 42 | 1014.6 |
| 20260905164550 | 99 | 182 | 0.0 | 0.0 | 0.00 | 0.00 | 0.00 | 49 | 1014.5 |
| 20260905164044 | 100 | 262 | 1.0 | 2.0 | 0.00 | 0.00 | 0.00 | 46 | 1014.7 |
| 20260905163540 | 99 | 175 | 1.0 | 1.0 | 0.00 | 0.00 | 0.00 | 50 | 1014.8 |
| 20260905163036 | 99 | 172 | 1.0 | 1.0 | 0.00 | 0.00 | 0.00 | 49 | 1014.9 |
| 20260905162532 | 98 | 201 | 1.0 | 1.0 | 0.00 | 0.00 | 0.00 | 50 | 1015.2 |
| 20260905162021 | 100 | 304 | 3.0 | 5.0 | 0.00 | 0.00 | 0.00 | 45 | 1015.3 |
| 20260905161521 | 99 | 197 | 2.0 | 2.0 | 0.00 | 0.00 | 0.00 | 49 | 1015.1 |
| 20260905161018 | 99 | 194 | 3.0 | 3.0 | 0.00 | 0.00 | 0.00 | 49 | 1015.2 |
| 20260905160512 | 99 | 170 | 1.0 | 2.0 | 0.00 | 0.00 | 0.00 | 53 | 1015.2 |
| 20260905160011 | 100 | 187 | 0.0 | 0.0 | 0.00 | 0.00 | 0.00 | 52 | 1015.2 |
| 20260905155506 | 100 | 199 | 1.0 | 2.0 | 0.00 | 0.00 | 0.00 | 49 | 1015.4 |
| 20260905155004 | 99 | 184 | 1.0 | 1.0 | 0.00 | 0.00 | 0.00 | 48 | 1015.4 |
| 20260905154500 | 99 | 174 | 0.0 | 1.0 | 0.00 | 0.00 | 0.00 | 49 | 1015.2 |
| 20260905153955 | 99 | 197 | 1.0 | 1.0 | 0.00 | 0.00 | 0.00 | 52 | 1015.3 |
| 20260905153452 | 99 | 208 | 3.0 | 3.0 | 0.00 | 0.00 | 0.00 | 51 | 1015.3 |
| 20260905152951 | 97 | 182 | 0.0 | 0.0 | 0.00 | 0.00 | 0.00 | 56 | 1015.2 |
| 20260905152451 | 96 | 209 | 1.0 | 1.0 | 0.00 | 0.00 | 0.00 | 56 | 1015.3 |
| 20260905151946 | 96 | 236 | 1.0 | 1.0 | 0.00 | 0.00 | 0.00 | 54 | 1015.1 |
| 20260905151441 | 96 | 200 | 1.0 | 1.0 | 0.00 | 0.00 | 0.00 | 52 | 1015.2 |
| 20260905150936 | 96 | 180 | 0.0 | 0.0 | 0.00 | 0.00 | 0.00 | 57 | 1015.2 |
| 20260905150437 | 95 | 184 | 0.0 | 0.0 | 0.00 | 0.00 | 0.00 | 57 | 1015.3 |
| 20260905145933 | 94 | 188 | 1.0 | 1.0 | 0.00 | 0.00 | 0.00 | 57 | 1015.3 |
| 20260905145427 | 93 | 233 | 0.0 | 1.0 | 0.00 | 0.00 | 0.00 | 60 | 1015.2 |
| 20260905144927 | 93 | 185 | 0.0 | 0.0 | 0.00 | 0.00 | 0.00 | 63 | 1015.2 |
| 20260905144423 | 94 | 207 | 3.0 | 5.0 | 0.00 | 0.00 | 0.00 | 56 | 1015.3 |
| 20260905143921 | 93 | 184 | 0.0 | 0.0 | 0.00 | 0.00 | 0.00 | 62 | 1015.2 |
| 20260905143415 | 92 | 188 | 1.0 | 2.0 | 0.00 | 0.00 | 0.00 | 59 | 1015.0 |
| 20260905142915 | 90 | 185 | 0.0 | 0.0 | 0.00 | 0.00 | 0.00 | 65 | 1015.3 |
| 20260905142414 | 89 | 221 | 1.0 | 2.0 | 0.00 | 0.00 | 0.00 | 66 | 1015.2 |
| 20260905141910 | 88 | 193 | 1.0 | 1.0 | 0.00 | 0.00 | 0.00 | 67 | 1015.3 |
| 20260905141405 | 88 | 186 | 0.0 | 1.0 | 0.00 | 0.00 | 0.00 | 69 | 1015.2 |
| 20260905140901 | 87 | 190 | 1.0 | 1.0 | 0.00 | 0.00 | 0.00 | 68 | 1015.0 |
| 20260905140355 | 88 | 193 | 2.0 | 2.0 | 0.00 | 0.00 | 0.00 | 68 | 1015.1 |
| 20260905135854 | 88 | 183 | 1.0 | 1.0 | 0.00 | 0.00 | 0.00 | 68 | 1015.4 |
| 20260905135350 | 88 | 186 | 0.0 | 1.0 | 0.00 | 0.00 | 0.00 | 68 | 1015.3 |
| 20260905134846 | 88 | 188 | 1.0 | 1.0 | 0.00 | 0.00 | 0.00 | 67 | 1015.4 |
| 20260905134344 | 89 | 187 | 0.0 | 0.0 | 0.00 | 0.00 | 0.00 | 67 | 1015.3 |
| 20260905133839 | 89 | 196 | 0.0 | 0.0 | 0.00 | 0.00 | 0.00 | 66 | 1015.3 |
| 20260905133334 | 89 | 181 | 0.0 | 0.0 | 0.00 | 0.00 | 0.00 | 65 | 1015.7 |
| 20260905132833 | 89 | 178 | 0.0 | 0.0 | 0.00 | 0.00 | 0.00 | 65 | 1015.5 |
| 20260905132329 | 88 | 178 | 0.0 | 0.0 | 0.00 | 0.00 | 0.00 | 65 | 1015.4 |
| 20260905131823 | 89 | 180 | 0.0 | 0.0 | 0.00 | 0.00 | 0.00 | 68 | 1015.5 |
| 20260905131319 | 89 | 175 | 0.0 | 0.0 | 0.00 | 0.00 | 0.00 | 67 | 1015.4 |
| 20260905130814 | 87 | 180 | 0.0 | 0.0 | 0.00 | 0.00 | 0.00 | 69 | 1015.4 |
| 20260905130312 | 86 | 180 | 0.0 | 0.0 | 0.00 | 0.00 | 0.00 | 71 | 1015.5 |
| 20260905125808 | 86 | 186 | 0.0 | 0.0 | 0.00 | 0.00 | 0.00 | 70 | 1015.4 |
| 20260905125305 | 86 | 187 | 0.0 | 0.0 | 0.00 | 0.00 | 0.00 | 72 | 1015.4 |
| 20260905124759 | 86 | 187 | 0.0 | 0.0 | 0.00 | 0.00 | 0.00 | 71 | 1015.5 |
| 20260905124255 | 85 | 187 | 0.0 | 0.0 | 0.00 | 0.00 | 0.00 | 74 | 1015.3 |
| 20260905123750 | 82 | 187 | 0.0 | 0.0 | 0.00 | 0.00 | 0.00 | 76 | 1015.4 |
| 20260905123247 | 81 | 187 | 0.0 | 0.0 | 0.00 | 0.00 | 0.00 | 79 | 1015.4 |
| 20260905122747 | 80 | 187 | 0.0 | 0.0 | 0.00 | 0.00 | 0.00 | 80 | 1015.4 |
| 20260905122246 | 80 | 172 | 0.0 | 0.0 | 0.00 | 0.00 | 0.00 | 81 | 1015.3 |
| 20260905121741 | 78 | 165 | 0.0 | 0.0 | 0.00 | 0.00 | 0.00 | 82 | 1015.3 |
| 20260905121238 | 77 | 172 | 0.0 | 0.0 | 0.00 | 0.00 | 0.00 | 85 | 1015.3 |
| 20260905120736 | 77 | 176 | 0.0 | 0.0 | 0.00 | 0.00 | 0.00 | 85 | 1015.2 |
| 20260905120231 | 77 | 176 | 0.0 | 0.0 | 0.00 | 0.00 | 0.00 | 86 | 1015.1 |
| 20260905115726 | 77 | 176 | 0.0 | 0.0 | 0.00 | 0.00 | 0.00 | 85 | 1014.9 |
| 20260905115225 | 77 | 176 | 0.0 | 0.0 | 0.00 | 0.00 | 0.00 | 85 | 1015.2 |
| 20260905114721 | 77 | 176 | 0.0 | 0.0 | 0.00 | 0.00 | 0.00 | 84 | 1015.0 |
| 20260905114219 | 77 | 176 | 0.0 | 0.0 | 0.00 | 0.00 | 0.00 | 84 | 1015.1 |
| 20260905113719 | 77 | 176 | 0.0 | 0.0 | 0.00 | 0.00 | 0.00 | 84 | 1014.9 |
| 20260905113215 | 77 | 176 | 0.0 | 0.0 | 0.00 | 0.00 | 0.00 | 84 | 1014.8 |
| 20260905112715 | 77 | 176 | 0.0 | 0.0 | 0.00 | 0.00 | 0.00 | 83 | 1014.6 |
| 20260905112210 | 77 | 176 | 0.0 | 0.0 | 0.00 | 0.00 | 0.00 | 83 | 1014.7 |
| 20260905111709 | 77 | 176 | 0.0 | 0.0 | 0.00 | 0.00 | 0.00 | 83 | 1014.7 |
| 20260905111209 | 77 | 175 | 0.0 | 0.0 | 0.00 | 0.00 | 0.00 | 84 | 1014.8 |